Showing default

TRANSIT 5B-2, 704

Orbit data source: Space-Track

TRANSIT 5B-2, 704 is a payload satellite owned by USN BuWeps (US) in LEO that was launched on Thu, 05 Dec 1963 UTC via a THOR ABLESTAR launch vehicle from the Air Force Western Test Range (AFWTR). Payload-class satellites include a variety of spacecraft equipped with specific instruments for various scientific and technological missions. These include communications satellites like Starlink; space stations such as the ISS; scientific satellites like the Hubble; Earth observation satellites from companies like Planet Labs, Umbra, and HawkEye 360; GPS; miniature CubeSats for education and research; and military/defense satellites.

Loading next visibility...
Identifier
704, 1963-049B
Orbit
LEO
Country
Flag of USUS
Related business
Manufacturer
APL
Mission
Spacecraft
Bus & Motor
TRANSIT 5, Unknown motor
Mass
75 kg wet, 75 kg dry
Launch date (UTC)
1963-12-05 (62 years ago)
Launch vehicle
THOR ABLESTAR
Launch site
Air Force Western Test Range (AFWTR)
Object type
Payload
Rocket body
Debris
Shape & HBR
Unknown
Radar Cross Section
Large (>1 m²)

Expand to show TLE details & history
Last TLE update: 6 hours ago

TLE from 6 hours ago
0 TRANSIT 5B-2
1   704U 63049B   25308.79456910  .00000052  00000-0  70035-4 0  9998
2   704  89.9208  72.2351 0033672 222.1413 292.6489 13.47097034 41110
Epoch: 2025-11-04T19:04Z
TLE epoch observation values (Epoch: 2025-11-04T19:04:10.770Z)
Latitude
25.59509°
Longitude
-78.12399°
Altitude
1,076.509 km
Speed
7.321 km/s
True Right ascension
16h 48m 47s
True Declination
25° 28' 02"
Sunlit
Object was in daylight at epoch
Visualization orbit readout
Latitude
Unknown
Longitude
Unknown
Altitude
Unknown
Speed
Unknown
Apparent Right ascension
Unknown
Apparent Declination
Unknown
Sunlit
N/A
Visualization observer readout
Local Sidereal Time
21:00:55
Azimuth
Unknown
Elevation
Unknown
Doppler factor
Unknown
Orbital elements
Apogee altitude
1,105.125 km
Perigee altitude
1,054.899 km
Semi-major axis
7,458.149 km
Eccentricity
0.00337
Inclination
89.9208°
RAAN
72.2351°
Arg. of periapsis
222.1413°
True anomaly
292.29223°
Mean anomaly
292.6489°
Eccentric anomaly
292.47062°
Mean motion
3.36974 °/min
Orbital period
106.83 mins
BSTAR
0.000070035
Loading maneuver chart data...
Computing Atmospheric mass density...
Loading historical data...
Loading historical data...
Loading historical data...
Loading historical data...
Loading historical data...
Loading historical data...
Loading historical data...

Documentation

Showing up to 5 results
|